Home   Weather   Stade   Past weeks

Flag for Germany Past Weather in Stade, Lower Saxony, Germany — Yesterday and Last 2 Weeks

Now
34 °F

Fog.


Feels Like: 30 °F
Forecast: 28 / 35 °F
Wind: 5 mph from Southwest

Location: Hamburg-Finkenwerder

Current Time: Jan 20, 2017 at 3:23:14 pm

Latest Report: Jan 20, 2017 at 2:50 pm


Visibility: 1 mi

Pressure: 30.57 "Hg

Humidity: 100%

Dew Point: 34 °F

Location of StadeLocation

Past Weather in Stade — Graph

°F

Stade Temperature Yesterday

Maximum temperature yesterday: 34 °F (at 12:50 pm)
Minimum temperature yesterday: 28 °F (at 5:50 am)
Average temperature yesterday: 31 °F

High & Low Weather Summary for the Past Weeks

 TemperatureHumidityPressure
High43 °F (Jan 11, 1:50 pm)100% (Jan 7, 10:50 am)30.77 "Hg (Jan 7, 10:50 am)
Low14 °F (Jan 6, 5:50 am)54% (Jan 5, 4:20 pm)29.06 "Hg (Jan 13, 6:20 am)
Average32 °F86%30.17 "Hg
* Reported Jan 5 2:20 pm — Jan 20 2:20 pm, Stade, Weather by CustomWeather, © 2017

Note: Actual official high and low records may vary slightly from our data, if they occured in-between our weather recording intervals... More about our weather records

Advertising

Stade Weather History for the Previous 24 Hours

Scroll right to see more
 ConditionsComfort  
Time TempWeatherWind HumidityBarometerVisibility
2:20 pm
Fri, Jan 20
34 °FFog.3 mph100%30.57 "Hg1 mi
1:50 pm34 °FFog.5 mph93%30.57 "Hg1 mi
1:20 pm34 °FFog.5 mph93%30.57 "Hg1 mi
12:50 pm34 °FFog.5 mph93%30.60 "Hg1 mi
12:20 pm32 °FIce fog.5 mph100%30.60 "Hg1 mi
11:50 am32 °FIce fog.5 mph100%30.60 "Hg1 mi
11:20 am32 °FIce fog.3 mph100%30.60 "Hg1 mi
10:50 am32 °FIce fog.6 mph93%30.60 "Hg1 mi
10:43 am32 °FIce fog.6 mph93%30.60 "Hg1 mi
10:20 am32 °FIce fog.5 mph93%30.60 "Hg1 mi
9:50 am32 °FIce fog.5 mph93%30.60 "Hg1 mi
9:20 am32 °FIce fog.5 mph93%30.60 "Hg2 mi
8:50 am32 °FIce fog.5 mph93%30.60 "Hg3 mi
8:20 am32 °FLight freezing rain. Ice fog.5 mph87%30.60 "Hg2 mi
7:50 am32 °FLight freezing rain. Ice fog.5 mph87%30.60 "Hg3 mi
7:20 am32 °FLight freezing rain. Ice fog.5 mph87%30.60 "Hg3 mi
6:50 am32 °FPassing clouds.5 mph80%30.57 "Hg4 mi
6:20 am32 °FPassing clouds.5 mph80%30.60 "Hg5 mi
5:50 am32 °FPassing clouds.5 mph80%30.60 "Hg5 mi
8:20 pm
Thu, Jan 19
30 °FPassing clouds.3 mph80%30.63 "HgN/A
7:50 pm32 °FPassing clouds.3 mph75%30.63 "HgN/A
7:20 pm32 °FPassing clouds.3 mph75%30.63 "HgN/A
6:50 pm30 °FPartly cloudy.6 mph86%30.63 "HgN/A
6:20 pm30 °FPassing clouds.5 mph86%30.63 "HgN/A
5:50 pm30 °FPassing clouds.5 mph86%30.63 "HgN/A
5:20 pm32 °FPassing clouds.7 mph80%30.63 "HgN/A
4:50 pm34 °FPassing clouds.7 mph75%30.63 "HgN/A
4:20 pm34 °FPartly sunny.6 mph75%30.63 "HgN/A
3:50 pm34 °FBroken clouds.6 mph75%30.63 "HgN/A
3:20 pm34 °FPartly sunny.6 mph70%30.63 "HgN/A
Weather by CustomWeather, © 2017

See weather overviewHow to use our weather pages